Home   Weather   Pamplona   Past weeks

Flag for Spain Past Weather in Pamplona, Spain — Yesterday and Last 2 Weeks

Now
36 °F

Fog.


Feels Like: 36 °F
Forecast: 40 / 55 °F
Wind: No wind

Location: Pamplona / Noain

Current Time: Dec 11, 2016 at 7:07:31 am

Latest Report: Dec 11, 2016 at 6:30 am


Visibility: 0 mi

Pressure: 30.33 "Hg

Humidity: 100%

Dew Point: 36 °F

Location of PamplonaLocation

Past Weather in Pamplona — Graph

°F

Pamplona Temperature Yesterday

Maximum temperature yesterday: 43 °F (at 3:30 pm)
Minimum temperature yesterday: 37 °F (at 12:00 am)
Average temperature yesterday: 39 °F

High & Low Weather Summary for the Past Weeks

 TemperatureHumidityPressure
High59 °F (Nov 27, 3:30 pm)100% (Nov 26, 8:00 pm)30.57 "Hg (Nov 26, 8:00 pm)
Low30 °F (Nov 28, 7:30 am)54% (Dec 2, 7:00 am)29.83 "Hg (Nov 26, 3:00 pm)
Average43 °F91%30.21 "Hg
* Reported Nov 26 6:00 am — Dec 11 6:00 am, Pamplona, Weather by CustomWeather, © 2016

Note: Actual official high and low records may vary slightly from our data, if they occured in-between our weather recording intervals... More about our weather records

Advertising

Pamplona Weather History for the Previous 24 Hours

Scroll right to see more
 ConditionsComfort  
Time TempWeatherWind HumidityBarometerVisibility
6:00 am
Sun, Dec 11
36 °FFog.1 mph100%30.33 "Hg0 mi
5:30 am36 °FFog.No wind100%30.36 "Hg0 mi
5:00 am36 °FChilly.No wind100%30.36 "Hg0 mi
4:30 am36 °FChilly.No wind100%30.36 "Hg0 mi
4:00 am36 °FFog.No wind100%30.36 "Hg0 mi
3:30 am36 °FFog.1 mph100%30.36 "Hg0 mi
3:00 am37 °FChilly.No wind100%30.36 "Hg0 mi
2:30 am37 °FChilly.No wind100%30.36 "Hg0 mi
2:00 am37 °FChilly.2 mph100%30.36 "Hg0 mi
1:30 am37 °FChilly.1 mph100%30.36 "Hg0 mi
1:00 am37 °FChilly.No wind100%30.39 "Hg0 mi
12:30 am39 °FChilly.No wind100%30.36 "Hg0 mi
12:00 am39 °FFog.1 mph100%30.36 "Hg0 mi
11:30 pm
Sat, Dec 10
39 °FFog.2 mph100%30.36 "Hg0 mi
11:00 pm39 °FFog.No wind100%30.36 "Hg0 mi
10:30 pm39 °FFog.No wind100%30.36 "Hg0 mi
10:00 pm39 °FFog.No wind100%30.36 "Hg0 mi
9:30 pm41 °FFog.1 mph100%30.36 "Hg0 mi
9:00 pm41 °FFog.1 mph100%30.36 "Hg0 mi
8:30 pm41 °FFog.2 mph100%30.36 "Hg0 mi
8:00 pm41 °FFog.1 mph100%30.39 "Hg0 mi
7:30 pm41 °FFog.2 mph100%30.36 "Hg1 mi
7:00 pm43 °FFog.1 mph100%30.36 "Hg1 mi
6:30 pm43 °FFog.No wind100%30.36 "Hg2 mi
6:00 pm43 °FFog.1 mph100%30.36 "Hg2 mi
5:30 pm43 °FFog.1 mph100%30.36 "Hg3 mi
5:00 pm43 °FFog.No wind100%30.36 "Hg3 mi
4:30 pm43 °FFog.1 mph100%30.36 "Hg3 mi
4:00 pm43 °FFog.1 mph100%30.36 "Hg3 mi
3:30 pm43 °FFog.No wind100%30.36 "Hg3 mi
3:00 pm41 °FFog.No wind100%30.36 "Hg3 mi
2:30 pm41 °FFog.1 mph100%30.39 "Hg2 mi
2:00 pm41 °FFog.1 mph100%30.39 "Hg2 mi
1:30 pm39 °FFog.1 mph100%30.39 "Hg1 mi
1:00 pm39 °FFog.No wind100%30.42 "Hg1 mi
12:30 pm39 °FFog.1 mph100%30.42 "Hg1 mi
12:00 pm39 °FFog.No wind100%30.42 "Hg1 mi
11:30 am37 °FFog.No wind100%30.45 "Hg1 mi
11:00 am37 °FFog.1 mph100%30.45 "Hg1 mi
10:30 am37 °FFog.1 mph100%30.45 "Hg0 mi
10:00 am37 °FFog.No wind100%30.42 "Hg0 mi
9:30 am37 °FFog.1 mph100%30.42 "Hg0 mi
9:00 am37 °FFog.No wind100%30.42 "Hg0 mi
8:30 am37 °FFog.No wind100%30.42 "Hg1 mi
8:00 am37 °FFog.No wind100%30.42 "Hg1 mi
7:30 am37 °FFog.No wind100%30.42 "Hg1 mi
7:00 am37 °FFog.No wind100%30.42 "Hg1 mi
Weather by CustomWeather, © 2016

See weather overviewHow to use our weather pages